This is the latest recevied weather packets stored in our database for station/object ac2ev. If no packets are shown the sender has not sent any weather packets the latest 10 day(s).
| Time | Temp. | Humidity | Pressure | Rain* | Wind** | Luminosity | Snow |
|---|---|---|---|---|---|---|---|
| 1787423551 | 26.67° C | 53% | 1011 hPa | 0 mm | - | - | - |
| 1787423251 | 26.67° C | 52% | 1011.1 hPa | 0 mm | - | - | - |
| 1787422950 | 26.67° C | 50% | 1011.2 hPa | 0 mm | - | - | - |
| 1787422652 | 26.67° C | 51% | 1011.2 hPa | 0 mm | - | - | - |
| 1787422350 | 26.67° C | 50% | 1011.3 hPa | 0 mm | - | - | - |
| 1787422052 | 26.67° C | 51% | 1011.4 hPa | 0 mm | - | - | - |
| 1787421751 | 26.67° C | 53% | 1011.4 hPa | 0 mm | - | - | - |
| 1787421452 | 26.67° C | 49% | 1011.5 hPa | 0 mm | - | - | - |
| 1787421151 | 27.22° C | 51% | 1011.5 hPa | 0 mm | - | - | - |
| 1787420850 | 27.22° C | 52% | 1011.4 hPa | 0 mm | - | - | - |
| 1787420551 | 27.22° C | 51% | 1011.4 hPa | 0 mm | - | - | - |
| 1787420250 | 26.67° C | 52% | 1011.5 hPa | 0 mm | - | - | - |
| 1787419951 | 26.67° C | 51% | 1011.5 hPa | 0 mm | - | - | - |
| 1787419651 | 26.67° C | 50% | 1011.6 hPa | 0 mm | - | - | - |
| 1787419350 | 26.67° C | 51% | 1011.8 hPa | 0 mm | - | - | - |
| 1787419050 | 26.67° C | 53% | 1011.8 hPa | 0 mm | - | - | - |
| 1787418753 | 26.11° C | 53% | 1011.7 hPa | 0 mm | - | - | - |
| 1787418450 | 26.11° C | 54% | 1011.8 hPa | 0 mm | - | - | - |
| 1787418151 | 26.11° C | 55% | 1011.7 hPa | 0 mm | - | - | - |
| 1787417850 | 25.56° C | 58% | 1011.7 hPa | 0 mm | - | - | - |
| 1787417551 | 25.56° C | 56% | 1011.7 hPa | 0 mm | - | - | - |
| 1787417251 | 25.56° C | 57% | 1011.9 hPa | 0 mm | - | - | - |
| 1787416951 | 25.56° C | 55% | 1012.1 hPa | 0 mm | - | - | - |
| 1787416650 | 25.56° C | 57% | 1012.3 hPa | 0 mm | - | - | - |
| 1787416351 | 25.56° C | 61% | 1012.4 hPa | 0 mm | - | - | - |
* Rain latest hour (hover to see other rain measurements)
** Current wind speed in m/s (hover to see current wind gust speed)